TimePDT,TemperatureF,Dew PointF,Humidity,Sea Level PressureIn,VisibilityMPH,Wind Direction,Wind SpeedMPH,Gust SpeedMPH,PrecipitationIn,Events,Conditions,WindDirDegrees,DateUTC
12:50 AM,70.0,45.0,41,29.81,10.0,West,10.4,-,N/A,,Clear,280,2013-10-02 07:50:00
1:50 AM,68.0,45.0,43,29.82,10.0,West,4.6,-,N/A,,Clear,270,2013-10-02 08:50:00
2:50 AM,66.0,45.0,47,29.81,10.0,Calm,Calm,-,N/A,,Clear,0,2013-10-02 09:50:00
3:50 AM,64.9,44.1,47,29.81,10.0,Calm,Calm,-,N/A,,Clear,0,2013-10-02 10:50:00
4:50 AM,64.0,43.0,46,29.81,10.0,West,10.4,-,N/A,,Clear,260,2013-10-02 11:50:00
5:50 AM,63.0,44.1,50,29.81,10.0,WSW,11.5,-,N/A,,Clear,250,2013-10-02 12:50:00
6:50 AM,62.1,44.1,52,29.85,10.0,West,8.1,-,N/A,,Clear,260,2013-10-02 13:50:00
7:50 AM,64.0,44.1,48,29.86,10.0,West,9.2,-,N/A,,Clear,260,2013-10-02 14:50:00
8:50 AM,69.1,44.1,40,29.87,10.0,West,9.2,-,N/A,,Clear,280,2013-10-02 15:50:00
9:50 AM,73.0,43.0,34,29.86,10.0,West,9.2,-,N/A,,Clear,280,2013-10-02 16:50:00
10:50 AM,78.1,41.0,27,29.85,10.0,West,8.1,-,N/A,,Clear,270,2013-10-02 17:50:00
11:50 AM,82.0,39.9,22,29.82,10.0,Calm,Calm,-,N/A,,Clear,0,2013-10-02 18:50:00
12:50 PM,84.9,37.9,19,29.79,10.0,ENE,6.9,-,N/A,,Clear,70,2013-10-02 19:50:00
1:50 PM,89.1,36.0,15,29.75,10.0,WNW,11.5,17.3,N/A,,Clear,300,2013-10-02 20:50:00
2:50 PM,91.0,34.0,13,29.73,10.0,WSW,12.7,20.7,N/A,,Clear,250,2013-10-02 21:50:00
3:50 PM,91.0,35.1,14,29.72,10.0,WSW,15.0,24.2,N/A,,Clear,240,2013-10-02 22:50:00
4:50 PM,89.1,33.1,14,29.70,10.0,West,21.9,28.8,N/A,,Clear,270,2013-10-02 23:50:00
5:50 PM,86.0,32.0,14,29.72,10.0,West,23.0,-,N/A,,Clear,270,2013-10-03 00:50:00
6:50 PM,81.0,34.0,18,29.74,10.0,West,27.6,33.4,N/A,,Clear,260,2013-10-03 01:50:00
7:50 PM,77.0,39.0,25,29.76,10.0,West,20.7,-,N/A,,Clear,270,2013-10-03 02:50:00
8:50 PM,75.0,44.1,33,29.76,10.0,WSW,21.9,27.6,N/A,,Clear,240,2013-10-03 03:50:00
9:50 PM,73.0,41.0,31,29.77,10.0,West,24.2,35.7,N/A,,Clear,260,2013-10-03 04:50:00
10:50 PM,72.0,42.1,34,29.75,10.0,WSW,29.9,38.0,N/A,,Clear,240,2013-10-03 05:50:00
11:50 PM,69.1,39.9,35,29.77,10.0,West,23.0,-,N/A,,Clear,260,2013-10-03 06:50:00